Flag for Nigeria Weather past 2 weeks in Port Harcourt, Nigeria

Now
75 °F

Passing clouds.


Feels Like: 74 °F
Forecast: 76 / 84 °F
Wind: No wind

Location: Malabo/Fernando Poo

Current Time: Sep 4, 2015 at 5:40:29 AM

Latest Report: Sep 4, 2015 at 3:00 AM


Visibility: N/A

Pressure: 29.95 "Hg

Humidity: 94%

Dew point: 73 °F

Location of Port HarcourtLocation

Historic Weather in Port Harcourt — Graph

°F

Port Harcourt temperature yesterday

Maximum temperature yesterday: 84 °F (at 2:00 PM)
Minimum temperature yesterday: 75 °F (at 2:00 AM)
Average temperature yesterday: 78 °F

Past Weeks' High & Low Weather Summary

 TemperatureHumidityPressure
High84 °F (Aug 28, 12:00 PM)94% (Aug 20, 3:00 AM)30.07 "Hg (Aug 20, 3:00 AM)
Low73 °F (Aug 20, 4:00 AM)70% (Aug 28, 1:00 PM)29.86 "Hg (Aug 20, 3:00 PM)
Average77 °F86%29.95 "Hg
* Reported Aug 20 3:00 AM — Sep 4 3:00 AM, Port Harcourt, Weather by CustomWeather, © 2015

Note: Actual official high and low records may vary slightly from our data, if they occured in-between our weather recording intervals... More about our weather records

Advertising

Port Harcourt weather history for previous 24 hours

 ConditionsComfort  
Time TempWeatherWind HumidityBarometerVisibility
3:00 AM
Fri, Sep 4
75 °FPassing clouds.No wind94%29.95 "HgN/A
2:00 AM75 °FPassing clouds.3 mph94%29.95 "HgN/A
12:00 AM75 °FPassing clouds.No wind94%29.98 "HgN/A
11:00 PM
Thu, Sep 3
75 °FPassing clouds.No wind94%30.01 "HgN/A
10:00 PM75 °FPassing clouds.No wind94%30.01 "HgN/A
9:00 PM77 °FPartly cloudy.No wind89%29.98 "HgN/A
5:00 PM81 °FScattered clouds.5 mph79%29.92 "HgN/A
4:00 PM81 °FPassing clouds.10 mph79%29.89 "HgN/A
3:00 PM81 °FScattered clouds.12 mph79%29.92 "HgN/A
2:00 PM84 °FPartly sunny.7 mph70%29.95 "HgN/A
12:00 PM82 °FBroken clouds.9 mph74%30.01 "HgN/A
11:00 AM81 °FBroken clouds.No wind79%30.04 "HgN/A
10:00 AM79 °FBroken clouds.No wind84%30.04 "HgN/A
9:00 AM79 °FBroken clouds.No wind84%30.01 "HgN/A
8:00 AM77 °FPartly sunny.No wind83%30.01 "HgN/A
7:00 AM75 °FPartly sunny.No wind89%29.98 "HgN/A
6:00 AM75 °FPassing clouds.No wind89%29.98 "HgN/A
5:00 AM75 °FPassing clouds.No wind89%29.95 "HgN/A
Weather by CustomWeather, © 2015

See weather overviewHow to use our weather pages